Batesville, AR

2:09 PM CST on December 02, 2016 (GMT -0600)
Batesville Regional

Weather History for KBVX - January, 2014

Change the Weather History Date:

Wednesday, January 29, 2014

  Actual Average Record
Temperature  
Mean Temperature 24 °F -  
Max Temperature 39 °F 51 °F 75 °F (2002)
Min Temperature 10 °F 29 °F 3 °F (1966)
Degree Days  
Heating Degree Days 40    
Moisture  
Dew Point 5 °F    
Average Humidity 45    
Maximum Humidity 73    
Minimum Humidity 22    
Precipitation  
Precipitation 0.00 in - - ()
Sea Level Pressure  
Sea Level Pressure 30.40 in    
Wind  
Wind Speed 3 mph (SSW)    
Max Wind Speed 13 mph    
Max Gust Speed 20 mph    
Visibility 10 miles    
Events      
Averages and records for this station are not official NWS values.
T = Trace of Precipitation, MM = Missing Value Source: NWS Daily Summary

Daily Weather History Graph

Daily Weather History Graph

Search for Another Location

Airport or City:

Trip Planner

Search our weather history database for the weather conditions in past years. The results will help you decide how hot, cold, wet, or windy it might be!

Date:

Astronomy

Jan. 29, 2014 Rise Set
Actual Time 7:08 AM CST 5:31 PM CST
Civil Twilight 6:41 AM CST 5:58 PM CST
Nautical Twilight 6:11 AM CST 6:28 PM CST
Astronomical Twilight 5:41 AM CST 6:58 PM CST
Moon 5:45 AM CST (1/29) 4:30 PM CST (1/29)
Length of Visible Light 11h 16m
Length of Day
10h 22m
Waning Crescent, 2% of the Moon is Illuminated
Jan 29
Waning Crescent
Jan 30
New
Feb 6
First Quarter
Feb 14
Full
Feb 22
Last Quarter

Hourly Weather History & Observations

Time (CST) Temp. Windchill Dew Point Humidity Pressure Visibility Wind Dir Wind Speed Gust Speed Precip Events Conditions
12:15 AM 12.2 °F - 1.4 °F 62% 30.42 in 10.0 mi Calm Calm - N/A   Clear
12:35 AM 12.2 °F - -0.4 °F 57% 30.42 in 10.0 mi Calm Calm - N/A   Clear
12:55 AM 12.2 °F - -2.2 °F 53% 30.42 in 10.0 mi Calm Calm - N/A   Clear
1:35 AM 10.4 °F - -0.4 °F 62% 30.41 in 9.0 mi Calm Calm - N/A   Clear
1:55 AM 10.4 °F - -0.4 °F 62% 30.41 in 10.0 mi Calm Calm - N/A   Scattered Clouds
2:15 AM 10.4 °F - 1.4 °F 67% 30.40 in 10.0 mi Calm Calm - N/A   Partly Cloudy
2:35 AM 10.4 °F - 3.2 °F 73% 30.41 in 10.0 mi Calm Calm - N/A   Clear
2:55 AM 10.4 °F - 1.4 °F 67% 30.41 in 10.0 mi Calm Calm - N/A   Clear
3:15 AM 12.2 °F 6.1 °F -0.4 °F 57% 30.41 in 10.0 mi South 3.5 mph - N/A   Clear
3:35 AM 15.8 °F 10.2 °F 1.4 °F 53% 30.40 in 10.0 mi South 3.5 mph - N/A   Clear
3:55 AM 15.8 °F - 1.4 °F 53% 30.40 in 10.0 mi Calm Calm - N/A   Clear
4:15 AM 12.2 °F - 1.4 °F 62% 30.39 in 10.0 mi Calm Calm - N/A   Clear
4:35 AM 12.2 °F - 1.4 °F 62% 30.39 in 10.0 mi Calm Calm - N/A   Clear
4:55 AM 12.2 °F - 3.2 °F 67% 30.39 in 10.0 mi Calm Calm - N/A   Clear
5:15 AM 12.2 °F - 3.2 °F 67% 30.39 in 10.0 mi Calm Calm - N/A   Clear
5:35 AM 12.2 °F - 3.2 °F 67% 30.39 in 10.0 mi Calm Calm - N/A   Clear
5:55 AM 12.2 °F - 1.4 °F 62% 30.40 in 10.0 mi Calm Calm - N/A   Clear
6:15 AM 12.2 °F - 1.4 °F 62% 30.40 in 10.0 mi Calm Calm - N/A   Clear
6:35 AM 10.4 °F - 3.2 °F 73% 30.39 in 10.0 mi Calm Calm - N/A   Clear
6:55 AM 10.4 °F - 1.4 °F 67% 30.40 in 10.0 mi Calm Calm - N/A   Clear
7:15 AM 10.4 °F - 3.2 °F 73% 30.40 in 9.0 mi Calm Calm - N/A   Clear
7:35 AM 12.2 °F - 3.2 °F 67% 30.40 in 10.0 mi Calm Calm - N/A   Clear
7:55 AM 15.8 °F - 8.6 °F 73% 30.40 in 10.0 mi Calm Calm - N/A   Clear
8:15 AM 15.8 °F - 6.8 °F 68% 30.40 in 10.0 mi Calm Calm - N/A   Clear
8:35 AM 17.6 °F 12.3 °F 1.4 °F 49% 30.41 in 10.0 mi SSW 3.5 mph - N/A   Clear
8:55 AM 19.4 °F 10.4 °F 8.6 °F 63% - 10.0 mi SW 6.9 mph - N/A   Clear
9:15 AM 21.2 °F 14.9 °F 8.6 °F 58% 30.41 in 10.0 mi SW 4.6 mph - N/A   Clear
9:35 AM 24.8 °F 20.5 °F 10.4 °F 54% - 10.0 mi SW 3.5 mph - N/A   Clear
9:55 AM 26.6 °F 21.2 °F 8.6 °F 47% - 10.0 mi SSW 4.6 mph - N/A   Clear
10:15 AM 28.4 °F 22.2 °F 8.6 °F 43% - 10.0 mi WSW 5.8 mph - N/A   Clear
10:35 AM 30.2 °F 24.3 °F 5.0 °F 34% - 10.0 mi WSW 5.8 mph - N/A   Clear
10:55 AM 32.0 °F 27.5 °F 6.8 °F 35% - 10.0 mi South 4.6 mph - N/A   Clear
11:15 AM 32.0 °F 24.2 °F 3.2 °F 30% - 10.0 mi South 9.2 mph - N/A   Clear
11:35 AM 33.8 °F 30.8 °F 6.8 °F 32% 30.42 in 10.0 mi SSW 3.5 mph - N/A   Clear
11:55 AM 33.8 °F 27.0 °F 6.8 °F 32% - 10.0 mi SW 8.1 mph - N/A   Clear
12:15 PM 33.8 °F 28.6 °F 8.6 °F 35% - 10.0 mi WSW 5.8 mph - N/A   Clear
12:35 PM 35.6 °F 28.6 °F 5.0 °F 28% - 10.0 mi SW 9.2 mph - N/A   Clear
12:55 PM 35.6 °F 28.0 °F 6.8 °F 30% - 10.0 mi WSW 10.4 mph - N/A   Clear
1:15 PM 35.6 °F 29.2 °F 6.8 °F 30% - 10.0 mi WSW 8.1 mph - N/A   Clear
1:35 PM 37.4 °F 30.8 °F 6.8 °F 28% - 10.0 mi SW 9.2 mph - N/A   Clear
1:55 PM 37.4 °F 31.4 °F 6.8 °F 28% - 10.0 mi WSW 8.1 mph - N/A   Clear
2:15 PM 37.4 °F 32.1 °F 6.8 °F 28% - 10.0 mi WSW 6.9 mph - N/A   Clear
2:35 PM 39.2 °F 33.0 °F 6.8 °F 26% - 10.0 mi West 9.2 mph - N/A   Clear
2:55 PM 37.4 °F 33.8 °F 5.0 °F 26% - 10.0 mi WSW 4.6 mph - N/A   Clear
3:15 PM 39.2 °F 34.2 °F 5.0 °F 24% - 10.0 mi WSW 6.9 mph - N/A   Clear
3:35 PM 37.4 °F 32.8 °F 5.0 °F 26% - 10.0 mi West 5.8 mph - N/A   Clear
3:55 PM 39.2 °F 35.9 °F 5.0 °F 24% - 10.0 mi SW 4.6 mph - N/A   Clear
4:15 PM 39.2 °F 34.2 °F 3.2 °F 22% - 10.0 mi SSW 6.9 mph - N/A   Clear
4:35 PM 37.4 °F 32.1 °F 3.2 °F 24% - 10.0 mi South 6.9 mph - N/A   Clear
4:55 PM 37.4 °F 32.8 °F 6.8 °F 28% - 10.0 mi SSW 5.8 mph - N/A   Clear
5:15 PM 37.4 °F 33.8 °F 3.2 °F 24% - 10.0 mi South 4.6 mph - N/A   Clear
5:35 PM 35.6 °F 31.7 °F 3.2 °F 26% - 10.0 mi SSW 4.6 mph - N/A   Clear
5:55 PM 33.8 °F 30.8 °F 3.2 °F 28% - 10.0 mi South 3.5 mph - N/A   Clear
6:15 PM 33.8 °F 28.6 °F 3.2 °F 28% - 10.0 mi South 5.8 mph - N/A   Clear
6:35 PM 32.0 °F 24.8 °F 5.0 °F 32% - 10.0 mi SSE 8.1 mph - N/A   Clear
6:55 PM 30.2 °F 22.6 °F 6.8 °F 37% - 10.0 mi South 8.1 mph - N/A   Clear
7:15 PM 30.2 °F 22.6 °F 6.8 °F 37% - 10.0 mi South 8.1 mph - N/A   Clear
7:35 PM 30.2 °F 21.9 °F 6.8 °F 37% - 10.0 mi South 9.2 mph - N/A   Clear
7:55 PM 30.2 °F 22.6 °F 8.6 °F 40% - 10.0 mi South 8.1 mph 17.3 mph N/A   Clear
8:15 PM 28.4 °F 19.1 °F 6.8 °F 40% - 10.0 mi South 10.4 mph - N/A   Clear
8:35 PM 28.4 °F 19.7 °F 6.8 °F 40% - 10.0 mi South 9.2 mph - N/A   Clear
8:55 PM 28.4 °F 18.5 °F 6.8 °F 40% - 10.0 mi South 11.5 mph 19.6 mph N/A   Clear
9:15 PM 28.4 °F 18.0 °F 6.8 °F 40% - 10.0 mi South 12.7 mph 18.4 mph N/A   Clear
9:35 PM 28.4 °F 18.0 °F 8.6 °F 43% - 10.0 mi South 12.7 mph 19.6 mph N/A   Clear
9:55 PM 28.4 °F 19.1 °F 6.8 °F 40% - 10.0 mi South 10.4 mph 16.1 mph N/A   Clear
10:15 PM 28.4 °F 20.4 °F 6.8 °F 40% - 10.0 mi South 8.1 mph - N/A   Clear
10:35 PM 28.4 °F 19.7 °F 6.8 °F 40% 30.25 in 10.0 mi South 9.2 mph 16.1 mph N/A   Clear
10:55 PM 26.6 °F 20.0 °F 8.6 °F 47% - 10.0 mi South 5.8 mph - N/A   Clear
11:15 PM 26.6 °F 18.2 °F 8.6 °F 47% - 10.0 mi South 8.1 mph - N/A   Clear
11:35 PM 26.6 °F 18.2 °F 8.6 °F 47% - 10.0 mi South 8.1 mph 17.3 mph N/A   Clear
11:55 PM 26.6 °F 18.2 °F 8.6 °F 47% - 10.0 mi South 8.1 mph - N/A   Clear